Showing default

WILDFIRE 10, 57766

Orbit data source: Space-Track

WILDFIRE 10, 57766 is a payload satellite owned by SDA (US) in LEO that was launched on Sat, 02 Sep 2023 UTC via an FALCON 9 launch vehicle from the Air Force Western Test Range (AFWTR). Payload-class satellites include a variety of spacecraft equipped with specific instruments for various scientific and technological missions. These include communications satellites like Starlink; space stations such as the ISS; scientific satellites like the Hubble; Earth observation satellites from companies like Planet Labs, Umbra, and HawkEye 360; GPS; miniature CubeSats for education and research; and military/defense satellites.

Loading next visibility...
Identifier
57766, 2023-133K
Orbit
LEO
Country
Flag of USUS
Related business
Manufacturer
TYVAK/LMSSD
Mission
Operational Defense Communications
Bus & Motor
MAVERICKS, Unknown motor
Mass
~300 kg wet, ~300 kg dry
Launch date (UTC)
2023-09-02 (2 years ago)
Launch vehicle
FALCON 9
Launch site
Air Force Western Test Range (AFWTR)
Object type
Payload
Rocket body
Debris
Shape & HBR
Box + 2 Pan, 1.3 m
Radar Cross Section
0.713 m², Large (>1 m²)

Expand to show TLE details & history
Last TLE update: 10 hours ago

TLE from 10 hours ago
0 WILDFIRE 10
1 57766U 23133K   25346.96021102  .00000123  00000-0  98315-4 0  9990
2 57766  81.0013 186.2656 0006662 144.0487 216.1119 13.85578701115258
Epoch: 2025-12-12T23:02Z
TLE epoch observation values (Epoch: 2025-12-12T23:02:42.232Z)
Latitude
0.00002°
Longitude
118.6953°
Altitude
950.967 km
Speed
7.374 km/s
True Right ascension
12h 25m 03s
True Declination
0° 00' 00"
Sunlit
Object was in daylight at epoch
Visualization orbit readout
Latitude
Unknown
Longitude
Unknown
Altitude
Unknown
Speed
Unknown
Apparent Right ascension
Unknown
Apparent Declination
Unknown
Sunlit
N/A
Visualization observer readout
Local Sidereal Time
07:31:22
Azimuth
Unknown
Elevation
Unknown
Doppler factor
Unknown
Orbital elements
Apogee altitude
946.261 km
Perigee altitude
936.509 km
Semi-major axis
7,319.522 km
Eccentricity
0.00067
Inclination
81.0013°
RAAN
186.2656°
Arg. of periapsis
144.0487°
True anomaly
216.06694°
Mean anomaly
216.1119°
Eccentric anomaly
216.08942°
Mean motion
3.46592 °/min
Orbital period
103.87 mins
BSTAR
0.000098315
Loading maneuver chart data...
Computing Atmospheric mass density...
Loading historical data...
Loading historical data...
Loading historical data...
Loading historical data...
Loading historical data...
Loading historical data...
Loading historical data...

Documentation

Showing up to 5 results
|